Regional Weather Roundup
Issued by NWS

Home | Current Version | Previous Version | Graphics & Text | Print | Product List | Glossary On
Versions: 1 2 3 4 5 6 7 8 9 10 11 12 13 14 15 16 17 18 19 20 21 22 23 24 25 26 27 28 29 30 31 32 33 34 35 36 37 38 39 40 41 42 43 44 45 46 47 48 49 50
170
ASUS43 KMKX 210859
RWRWI

WISCONSIN REGIONAL WEATHER ROUNDUP
NATIONAL WEATHER SERVICE MILWAUKEE/SULLIVAN WI
300 AM CST WED FEB 21 2018

NOTE: "FAIR" INDICATES FEW OR NO CLOUDS BELOW 12,000 FEET WITH NO
SIGNIFICANT WEATHER AND/OR OBSTRUCTIONS TO VISIBILITY.

WIZ001-002-006>008-014>016-023>028-211000-
NORTHWEST WISCONSIN

CITY           SKY/WX    TMP DP  RH WIND       PRES   REMARKS
SUPERIOR ARPT  FAIR       2  -3  81 SW7       30.38R WCI -11
ASHLAND        FAIR       4  -1  80 SW8       30.36R WCI  -9
HAYWARD        FAIR       2  -2  83 SW5       30.35R WCI  -8
SIREN          FAIR      -1  -4  85 SW5       30.40R WCI -11
CUMBERLAND     FAIR       1  -4  78 W6        30.37R WCI -10
RICE LAKE      FAIR       4  -1  80 W3        30.40R
CHETEK         FAIR       5   0  79 MISG      30.39R
LADYSMITH      FAIR       8   3  82 W6        30.36R WCI  -2
EAU CLAIRE     NOT AVBL
MENOMONIE      FAIR       7   1  74 W6        30.43R WCI  -3
NEW RICHMOND   FAIR       1  -4  80 W3        30.41R
OSCEOLA        FAIR       3  -2  79 W5        30.45R WCI  -6
$$

WIZ003>005-009-010-017-018-211000-
NORTH CENTRAL WISCONSIN

CITY           SKY/WX    TMP DP  RH WIND       PRES   REMARKS
MANITOWISH WTR FAIR       6   4  94 W6        30.25R WCI  -5
ARBOR VITAE    FAIR      11   8  85 W3        30.25R
WOODRUFF       FAIR      11   8  85 W3        30.25R
RHINELANDER    FAIR      10   7  87 W8        30.26R WCI  -2
EAGLE RIVER    FLURRIES  10   5  80 W6        30.24R WCI   1
LAND O LAKES   LGT SNOW  13   9  84 W6        30.23R WCI   3
PHILLIPS       FAIR       7   4  85 CALM      30.28R
TOMAHAWK       FAIR      10   6  85 W5        30.28R WCI   1
MEDFORD        FAIR       9   5  84 W7        30.29R WCI  -2
MERRILL        FAIR      12   7  81 CALM      30.31R
$$

WIZ029-030-035-036-043>047-211000-
CENTRAL WISCONSIN

CITY           SKY/WX    TMP DP  RH WIND       PRES   REMARKS
WAUSAU         FAIR      13   8  81 NW7       30.29R WCI   3
MOSINEE        FAIR      14  10  85 W8        30.31R WCI   3
MARSHFIELD     FAIR      12   7  80 W12       30.31R WCI  -2
STEVENS POINT  FAIR      13  10  84 NW5       30.32R WCI   6
WAUPACA        FAIR      21  13  72 NW8       30.33R WCI  11
WAUTOMA        FAIR      18  12  77 NW10      30.35R WCI   6
WISC RAPIDS    FAIR      15   9  76 NW9       30.35R WCI   3
CAMP DOUGLAS   FAIR      16  11  81 NW9       30.37R WCI   4
$$

WIZ011>013-019>022-031-037>040-048>050-211000-
NORTHEAST WISCONSIN

CITY           SKY/WX    TMP DP  RH WIND       PRES   REMARKS
ANTIGO         FAIR      12   9  85 NW7       30.26R WCI   2
SHAWANO        FAIR      21  14  73 W7        30.31R WCI  12
OCONTO         FAIR      22  15  74 NW6       30.29R WCI  14
STURGEON BAY   CLOUDY    24  19  81 NW13G22   30.27R WCI  12
GREEN BAY      FAIR      23  14  68 NW13G23   30.30R WCI  11
MANITOWOC      CLOUDY    25  19  78 NW15      30.28R WCI  13
APPLETON       FAIR      21  10  63 NW12G20   30.29R WCI   9
CLINTONVILLE   FAIR      20  12  72 NW10      30.32R WCI   8
OSHKOSH        FAIR      21  13  71 NW12      30.31R WCI   9
$$

WIZ032>034-041-042-053>061-211000-
SOUTHWEST WISCONSIN

CITY           SKY/WX    TMP DP  RH WIND       PRES   REMARKS
LA CROSSE      FAIR      14   7  73 NW13      30.44R WCI   0
SPARTA         FAIR      15  11  85 W8        30.40R WCI   4
VIROQUA        CLOUDY    14  12  93 NW7       30.36R WCI   4
BOSCOBEL       FAIR      19  11  70 NW8G17    30.42R WCI   9
PRAIRIE DU CHI FAIR      17  10  71 NW14      30.42R WCI   3
PLATTEVILLE    FAIR      20  16  85 NW13      30.36R WCI   7
$$

WIZ056-057-062-063-064-067-068-211000-
SOUTH CENTRAL WISCONSIN

CITY           SKY/WX    TMP DP  RH WIND       PRES   REMARKS
REEDSBURG      CLOUDY    19  13  77 NW9       30.36R WCI   8
BARABOO/DELLS  FAIR      20  13  74 NW8       30.34R WCI  10
LONE ROCK      NOT AVBL
MINERAL POINT  MOCLDY    23  19  86 NW12      30.33R WCI  12
MADISON        FAIR      21  13  71 N14G20    30.34R WCI   8
MIDDLETON      CLOUDY    24  17  75 N14       30.34R WCI  12
WATERTOWN      CLOUDY    23  18  81 NW13      30.30R WCI  11
MONROE         CLOUDY    25  19  80 N9G16     30.30R WCI  15
JANESVILLE     CLOUDY    28  23  80 NW13      30.30R WCI  18
$$

WIZ051-052-058>065-066-070>072-211000-
SOUTHEAST WISCONSIN

CITY           SKY/WX    TMP DP  RH WIND       PRES   REMARKS
MILWAUKEE      CLOUDY    28  19  69 N14       30.28R WCI  17
WAUKESHA       CLOUDY    25  19  80 NW14G22   30.29R WCI  13
MILWAUKEE/TIMM CLOUDY    27  18  69 NW17      30.29R WCI  14
RACINE         MOCLDY    28  22  78 NW14G23   30.30R WCI  17
BURLINGTON     CLOUDY    27  20  77 N15       30.29R WCI  15
KENOSHA        MOCLDY    29  23  78 NW14G24   30.28R WCI  18
FOND DU LAC    FAIR      22  13  68 NW13      30.31R WCI  10
SHEBOYGAN      CLOUDY    24  18  77 NW17G25   30.28R WCI  11
WEST BEND      CLOUDY    25  19  80 NW14G24   30.28R WCI  13
JUNEAU         CLOUDY    22  17  80 NW9       30.31R WCI  12
$$

LSZ147-162-211000-
LAKE SUPERIOR

STATION/POSITION TIME  TEMP    WIND        PRES    WAVE
                       AIR SEA DIR/SP/G            HT/PER
                 (UTC) (F)     (DEG/KT/KT) (MB)    (FT/S)
DEVILS ISLAND    0800   15     270/ 11/ 13 1027.0R
SAXON HARBOR     0830   11     230/  6/ 11 1027.1R
$$

LMZ867-665-643>646-211000-
LAKE MICHIGAN

STATION/POSITION TIME  TEMP    WIND        PRES    WAVE
                       AIR SEA DIR/SP/G            HT/PER
                 (UTC) (F)     (DEG/KT/KT) (MB)    (FT/S)
NORTHPORT PIER   0840   26                 1024.4R
KEWAUNEE LAKESHO 0830   27     310/  9/ 16 1023.9R
SHEBOYGAN LAKESH 0800   26     300/ 15/ 17 1025.4R
PORT WASHINGTON  0830   26     320/  6/ 16 1026.4R
MILWAUKEE LAKESH 0840   27     310/ 10/ 13   N/A
KENOSHA   LAKESH 0800   30     320/ 10/ 17 1024.7
$$

TC  - TEMPERATURE IN CELSIUS
VSB - VISIBILITY IN STATUTE MILES
WCI - WIND CHILL INDEX
HX  - HEAT INDEX





USA.gov is the U.S. government's official web portal to all federal, state and local government web resources and services.